Regional Weather Roundup
Issued by NWS Binghamton, NY

Home | Current Version | Previous Version | Text Only | Print | Product List | Glossary On
Versions: 1 2 3 4 5 6 7 8 9 10 11 12 13 14 15 16 17 18 19 20 21 22 23 24 25 26 27 28
000
ASUS41 KBGM 192010
RWRBGM

REGIONAL WEATHER ROUNDUP
NATIONAL WEATHER SERVICE BINGHAMTON NY
400 PM EDT THU OCT 19 2017

Note: "fair" indicates few or no clouds below 12,000 feet with no
significant weather and/or obstructions to visibility.

* = Station(s) that does not report precipitation, such as rain,
snow, etc, also no thunder or fog.

NYZ009-015>018-022>025-036-037-044>046-055>057-062-192100
...Central New York...

CITY           SKY/WX    TMP DP  RH WIND       PRES   REMARKS
Binghamton     FAIR      67  40  37 SW15G24   30.05F
Cortland       FAIR      70  41  35 SW12G18   30.02F
Dansville      FAIR      73  41  31 SW8       30.02S
Elmira         FAIR      74  43  32 SW16      30.01F
Seneca Falls   CLEAR     73  39  29 W13       29.99S
Ithaca         FAIR      72  43  35 SW12G21   30.03S
Hamilton       SUNNY     72  37  28 SW7       30.01S
Hornell        SUNNY     72  41  33 W8G20     30.07S
Monticello     FAIR      71  38  29 S8G16     30.08F
Oneonta        SUNNY     66 N/A N/A SW10G16   30.04S
Penn Yan       FAIR      73  41  31 W15       30.01S
Rome           FAIR      72  41  32 W12       29.97F
Sidney         SUNNY     70  37  30 W13       30.03S
Syracuse       PTSUNNY   72  43  35 SW12G25   29.97F
$$

PAZ038>040-043-044-047-048-072-192100
...Northeast Pennsylvania...

CITY           SKY/WX    TMP DP  RH WIND       PRES   REMARKS
Hazleton       FAIR      72  34  25 SW7       30.15S
Scranton       FAIR      72  42  34 W15G21    30.09F
$$
&&
KEY
WCI = Wind Chill Index
VSB = Visibility
HX  = Heat Index
$$




USA.gov is the U.S. government's official web portal to all federal, state and local government web resources and services.